[[{"header":{"parameterUnit":"m.s-1","parameterCategory":1,"la1":30.2991,"la2":30.254,"lo1":-89.0895,"lo2":-89.0444,"dy":0.0017,"dx":0.0017,"nx":28,"ny":28,"refTime":"2024-10-19T09:00:00:Z","depth":0,"parameterNumber":2,"parameterNumberName":"U-component_of_WINDS"},"data":[0,0,0,0,0,0,0,0,0,0,0,0,0,0,0,0,0,0,0,0,0,0,0,0,0,0,0,0,0,0,0,0,0,0,0,0,0,0,0,0,0,0,0,0,0,0,0,0,0,0,0,0,0,0,0,0,0,0,-3.8973,-3.8973,0,-3.9023,-3.9023,-3.9024,-3.8869,-3.8864,-3.8859,-3.8855,-3.8908,-3.8913,-3.8919,0,0,0,0,0,0,0,0,0,0,0,0,0,-3.8744,-3.8749,-3.8973,-3.8973,-3.8974,-3.9023,-3.9023,-3.9024,-3.8869,-3.8864,-3.8858,-3.8853,-3.8906,-3.8913,-3.892,0,0,0,0,0,0,0,0,0,0,0,0,0,-3.8824,-3.8751,-3.8973,-3.8903,-3.8897,-3.9022,-3.9023,-3.9024,-3.8871,-3.8864,-3.8856,-3.885,-3.8904,-3.8912,-3.8921,-3.9117,0,0,-3.8947,-3.8951,0,0,0,0,0,0,0,0,-3.882,-3.8833,-3.8912,-3.8908,-3.8902,-3.8932,-3.8962,-3.9055,-3.8872,-3.8881,-3.8855,-3.8846,-3.8922,-3.8929,-3.8954,-3.9119,-3.9121,-3.8948,-3.8954,-3.8957,-3.896,0,0,0,0,0,0,0,-3.8814,-3.883,-3.8992,-3.8914,-3.8907,-3.8869,-3.8873,-3.8979,-3.8941,-3.8879,-3.8868,-3.8876,-3.8917,-3.8946,-3.8954,-3.9122,-3.8948,-3.8956,-3.8961,-3.8965,-3.9451,-3.9458,0,0,0,0,0,0,-3.8818,-3.8826,-3.8991,-3.8994,-3.8842,-3.8879,-3.8883,-3.893,-3.8939,-3.8933,-3.8882,-3.8869,-3.8934,-3.8944,-3.8955,-3.9185,-3.8957,-3.8965,-3.897,-3.9443,-3.9452,-3.9461,0,0,0,0,0,0,-3.8814,-3.8834,-3.8989,-3.8907,-3.8924,-3.889,-3.8944,-3.8934,-3.8962,-3.8941,-3.8933,-3.8918,-3.8929,-3.8943,-3.9077,-3.9185,-3.8969,-3.8977,-3.9434,-3.9446,-3.9457,-3.9648,0,0,0,0,0,0,-3.8808,-3.8833,-3.8908,-3.891,-3.8929,-3.9111,-3.8951,-3.894,-3.8977,-3.896,-3.8973,-3.8968,-3.8924,-3.9065,-3.9086,-3.9193,-3.8984,-3.9424,-3.9439,-3.9453,-3.9632,-3.9664,-3.9692,0,0,0,0,0,-3.88,-3.896,-3.8912,-3.8933,-3.9021,-3.9118,-3.9128,-3.9075,-3.8987,-3.9061,-3.9047,-3.8967,-3.9169,-3.908,-3.9103,-3.9214,-3.9417,-3.9435,-3.9452,-3.9618,-3.9658,-3.9692,0,0,0,0,0,0,-3.8972,-3.8959,-3.8906,-3.9071,-3.9097,-3.9091,-3.9183,-3.9119,-3.917,-3.9152,-3.9083,-3.9087,-3.9235,-3.9237,-3.9138,-3.9404,-3.9278,-3.9301,-3.9397,-3.9435,-3.9464,-3.9462,-3.8991,0,0,0,0,0,-3.9029,-3.9109,-3.9093,-3.924,-3.9255,-3.9218,-3.9258,-3.9214,-3.9238,-3.9248,-3.9244,-3.9271,-3.9339,-3.9387,-3.9449,-3.963,-3.9631,-3.9718,-3.9748,-3.9773,-3.9794,-3.989,-3.9928,-3.9517,-3.9517,-3.9517,0,0,-3.9149,-3.9151,-3.9205,-3.9275,-3.9289,-3.9373,-3.9228,-3.9323,-3.9385,-3.9262,-3.939,-3.9388,-3.9413,-3.9572,-3.9641,-3.9578,-3.9907,-3.9795,-3.9815,-3.9822,-3.9912,-3.9951,-3.9985,-3.9529,-3.9527,-3.9525,0,0,-3.9409,-3.9418,-3.9542,-3.9559,-3.9583,-3.9556,-3.9586,-3.959,-3.9584,-3.971,-3.962,-3.9692,-3.9813,-3.9835,-3.9861,-4.0128,-4.0057,-4.0151,-4.031,-4.0404,-4.0436,-4.0465,-4.0561,-4.0596,-4.0171,-4.0172,-4.0172,0,-3.9554,-3.9677,-3.9614,-3.9716,-3.9749,-3.964,-3.9766,-3.9785,-3.9829,-3.9854,-3.9782,-3.9931,-3.994,-4.0103,-4.0168,-4.0193,-4.0225,-4.015,-4.0437,-4.0465,-4.049,-4.0581,-4.0617,-4.0183,-4.0181,-4.018,-4.0179,0,-3.9855,-3.9941,-4.0038,-4.0082,-4.0126,-4.0239,-4.0194,-4.0245,-4.0197,-4.0179,-4.0308,-4.0315,-4.0377,-4.0412,-4.0366,-4.0569,-4.0529,-4.0448,-4.0321,-4.0542,-4.0626,-4.066,-4.0199,-4.0195,-4.0192,-4.0189,0,0,-4.0227,-4.0233,-4.027,-4.0288,-4.0306,-4.0371,-4.0479,-4.0539,-4.0585,-4.0618,-4.0707,-4.0811,-4.0736,-4.0767,-4.0722,-4.0805,-4.1017,-4.0714,-4.0713,-4.0771,-4.124,-4.1302,-4.1344,-4.0969,-4.0975,-4.098,-4.1239,0,-4.0484,-4.0668,-4.0614,-4.0799,-4.0878,-4.0776,-4.0869,-4.089,-4.0875,-4.094,-4.0923,-4.0999,-4.0894,-4.0911,-4.0989,-4.0975,-4.111,-4.0955,-4.1052,-4.1056,-4.1051,-4.1387,-4.1453,-4.1697,-4.1271,-4.1277,-4.1281,0,-4.0809,-4.0854,-4.1047,-4.105,-4.1081,-4.1166,-4.1216,-4.128,-4.1301,-4.1284,-4.1318,-4.1256,-4.1362,-4.1233,-4.1379,-4.1274,-4.131,-4.1309,-4.1317,-4.1326,-4.1183,-4.1406,-4.1773,-4.1811,-4.1332,-4.1328,-4.1324,0,-4.1062,-4.1171,-4.13,-4.1319,-4.1325,-4.1388,-4.1394,-4.1408,-4.1447,-4.1491,-4.1515,-4.1571,-4.1603,-4.1648,-4.1603,-4.1513,-4.1755,-4.1622,-4.1745,-4.1747,-4.1802,-4.18,-4.2182,-4.1824,-4.1823,-4.1823,-4.1822,0,-4.1356,-4.1478,-4.1414,-4.1494,-4.1628,-4.1564,-4.1699,-4.1693,-4.1706,-4.1783,-4.1697,-4.1772,-4.1707,-4.1776,-4.1741,-4.1867,-4.1881,-4.1871,-4.1861,-4.188,-4.1882,-4.1904,-4.1887,-4.1832,-4.183,-4.1828,-4.1826,0,-4.1662,-4.1624,-4.1759,-4.1753,-4.1755,-4.1854,-4.185,-4.1923,-4.1901,-4.2,-4.2019,-4.1985,-4.2062,-4.202,-4.2099,-4.2076,-4.224,-4.2206,-4.2233,-4.2224,-4.235,-4.2339,-4.2761,-4.2813,-4.242,-4.2424,-4.2427,0,-4.1853,-4.1945,-4.1949,-4.1994,-4.2005,-4.2079,-4.2118,-4.2059,-4.2103,-4.2134,-4.2205,-4.2273,-4.2325,-4.2451,-4.2434,-4.2494,-4.2461,-4.2605,-4.247,-4.2486,-4.2465,-4.2461,-4.247,-4.2633,-4.2638,-4.2641,-4.2644,0,-4.2196,-4.2172,-4.2231,-4.2285,-4.2334,-4.2373,-4.2405,-4.2447,-4.2388,-4.2442,-4.2519,-4.2559,-4.2638,-4.2708,-4.2759,-4.2765,-4.2696,-4.2687,-4.2718,-4.274,-4.2752,-4.2748,-4.2309,-4.2678,-4.2674,-4.2672,-4.267,-4.2669,-4.2451,-4.2527,-4.2542,-4.2611,-4.2629,-4.2661,-4.273,-4.2716,-4.2778,-4.2838,-4.2799,-4.2889,-4.2907,-4.2968,-4.2984,-4.3053,-4.2996,-4.3042,-4.3054,-4.3066,-4.3084,-4.274,-4.3062,-4.3061,-4.306,-4.306,-4.3059,0,-4.279,-4.2794,-4.2858,-4.2905,-4.296,-4.2888,-4.2919,-4.297,-4.305,-4.3072,-4.3125,-4.3213,-4.3279,-4.3267,-4.3327,-4.3386,-4.3356,-4.3404,-4.34,-4.3402,-4.3131,-4.3098,-4.3427,-4.3427,-4.3427,-4.3427,-4.3427,-4.3427,-4.2973,-4.3099,-4.3077,-4.321,-4.3213,-4.33,-4.3325,-4.3354,-4.3371,-4.3473,-4.3527,-4.3518,-4.3527,-4.3587,-4.3645,-4.3639,-4.3666,-4.3727,-4.371,-4.3458,-4.3421,-4.3387,-4.3355,-4.3733,-4.3733,-4.3975,-4.3977,-4.3979]},{"header":{"parameterUnit":"m.s-1","parameterCategory":1,"la1":30.2991,"la2":30.254,"lo1":-89.0895,"lo2":-89.0444,"dy":0.0017,"dx":0.0017,"nx":28,"ny":28,"refTime":"2024-10-19T09:00:00:Z","depth":0,"parameterNumber":3,"parameterNumberName":"V-component_of_WINDS"},"data":[0,0,0,0,0,0,0,0,0,0,0,0,0,0,0,0,0,0,0,0,0,0,0,0,0,0,0,0,0,0,0,0,0,0,0,0,0,0,0,0,0,0,0,0,0,0,0,0,0,0,0,0,0,0,0,0,0,0,-3.0548,-3.0548,0,-3.0565,-3.0566,-3.0566,-3.0546,-3.0545,-3.0544,-3.0543,-3.056,-3.0561,-3.0562,0,0,0,0,0,0,0,0,0,0,0,0,0,-3.0495,-3.0496,-3.0548,-3.0548,-3.0549,-3.0565,-3.0566,-3.0566,-3.0546,-3.0545,-3.0544,-3.0543,-3.0559,-3.0561,-3.0562,0,0,0,0,0,0,0,0,0,0,0,0,0,-3.0515,-3.0496,-3.0548,-3.0541,-3.054,-3.0565,-3.0566,-3.0566,-3.0546,-3.0545,-3.0544,-3.0543,-3.0559,-3.0561,-3.0562,-3.0595,0,0,-3.0567,-3.0568,0,0,0,0,0,0,0,0,-3.0514,-3.0517,-3.0542,-3.0541,-3.0541,-3.0552,-3.0553,-3.0576,-3.0546,-3.0544,-3.0543,-3.0542,-3.0558,-3.056,-3.0565,-3.0596,-3.0597,-3.0568,-3.0569,-3.0569,-3.057,0,0,0,0,0,0,0,-3.0513,-3.0517,-3.0555,-3.0542,-3.0541,-3.0535,-3.0537,-3.0557,-3.0557,-3.0544,-3.0542,-3.0545,-3.0558,-3.0564,-3.0566,-3.0597,-3.0568,-3.0569,-3.057,-3.0571,-3.0652,-3.0653,0,0,0,0,0,0,-3.0513,-3.0516,-3.0554,-3.0555,-3.0524,-3.0537,-3.0539,-3.055,-3.0557,-3.0557,-3.0546,-3.0544,-3.0561,-3.0564,-3.0566,-3.0603,-3.0569,-3.0571,-3.0572,-3.0651,-3.0652,-3.0654,0,0,0,0,0,0,-3.0512,-3.0516,-3.0554,-3.0535,-3.0539,-3.0539,-3.0551,-3.0551,-3.0557,-3.0558,-3.0558,-3.0552,-3.0561,-3.0564,-3.0588,-3.0603,-3.0572,-3.0573,-3.065,-3.0651,-3.0653,-3.0678,0,0,0,0,0,0,-3.051,-3.0516,-3.053,-3.0536,-3.0541,-3.0576,-3.0552,-3.0552,-3.056,-3.0558,-3.0564,-3.0564,-3.056,-3.0585,-3.0589,-3.0605,-3.0575,-3.0648,-3.065,-3.0653,-3.0676,-3.0681,-3.0685,0,0,0,0,0,-3.0508,-3.0536,-3.053,-3.0535,-3.0558,-3.0577,-3.058,-3.0575,-3.0561,-3.0574,-3.0574,-3.0564,-3.0601,-3.0588,-3.0592,-3.0609,-3.0647,-3.065,-3.0652,-3.0674,-3.068,-3.0685,0,0,0,0,0,0,-3.0533,-3.0537,-3.0531,-3.0562,-3.0569,-3.0573,-3.059,-3.0581,-3.0592,-3.059,-3.0582,-3.0584,-3.0609,-3.0611,-3.0596,-3.064,-3.0622,-3.0625,-3.0637,-3.0642,-3.0647,-3.0645,-3.0576,0,0,0,0,0,-3.0542,-3.0558,-3.0561,-3.0588,-3.0592,-3.059,-3.0598,-3.0594,-3.0601,-3.0604,-3.0606,-3.0613,-3.0625,-3.0634,-3.0647,-3.0677,-3.0676,-3.069,-3.0694,-3.0698,-3.0701,-3.0714,-3.0719,-3.0662,-3.0662,-3.0662,0,0,-3.056,-3.0565,-3.0576,-3.0593,-3.0598,-3.0613,-3.0593,-3.0611,-3.0622,-3.0606,-3.0628,-3.063,-3.0637,-3.0663,-3.0675,-3.0666,-3.0716,-3.0701,-3.0704,-3.0705,-3.0717,-3.0723,-3.0727,-3.0664,-3.0664,-3.0663,0,0,-3.0602,-3.0608,-3.063,-3.0635,-3.0643,-3.0641,-3.0646,-3.0651,-3.0652,-3.0674,-3.0662,-3.0674,-3.0698,-3.0702,-3.0707,-3.0748,-3.0738,-3.0752,-3.0774,-3.0787,-3.0792,-3.0796,-3.0808,-3.0813,-3.0755,-3.0755,-3.0755,0,-3.0624,-3.0648,-3.0642,-3.066,-3.0667,-3.0653,-3.0674,-3.0679,-3.0691,-3.0695,-3.0685,-3.0712,-3.0716,-3.0742,-3.0751,-3.0757,-3.0761,-3.0751,-3.0792,-3.0796,-3.0799,-3.0811,-3.0816,-3.0757,-3.0757,-3.0756,-3.0756,0,-3.0673,-3.0689,-3.0706,-3.0716,-3.0725,-3.0745,-3.074,-3.075,-3.0744,-3.0743,-3.0764,-3.0768,-3.0779,-3.0785,-3.078,-3.081,-3.0804,-3.0793,-3.0775,-3.0806,-3.0817,-3.0822,-3.0759,-3.0758,-3.0758,-3.0758,0,0,-3.0731,-3.0737,-3.0743,-3.0746,-3.0752,-3.0764,-3.0782,-3.0793,-3.08,-3.0808,-3.0821,-3.084,-3.083,-3.0836,-3.0831,-3.0842,-3.0871,-3.083,-3.083,-3.0836,-3.0901,-3.0908,-3.0913,-3.0865,-3.0866,-3.0867,-3.09,0,-3.0771,-3.0802,-3.0796,-3.0826,-3.0839,-3.0826,-3.0841,-3.0845,-3.0845,-3.0855,-3.0854,-3.0866,-3.0852,-3.0855,-3.0867,-3.0865,-3.0884,-3.0863,-3.0876,-3.0876,-3.0873,-3.0919,-3.0927,-3.0959,-3.0904,-3.0905,-3.0906,0,-3.0822,-3.083,-3.0861,-3.0863,-3.0868,-3.0882,-3.089,-3.0901,-3.0905,-3.0904,-3.0909,-3.0901,-3.0917,-3.09,-3.092,-3.0906,-3.0911,-3.0911,-3.0912,-3.0912,-3.0892,-3.0919,-3.0969,-3.0973,-3.0913,-3.0912,-3.0911,0,-3.0858,-3.0878,-3.0898,-3.0901,-3.0905,-3.0914,-3.0916,-3.0919,-3.0925,-3.0932,-3.0936,-3.0945,-3.0949,-3.0956,-3.095,-3.0938,-3.0971,-3.0953,-3.0968,-3.0968,-3.0975,-3.0974,-3.1025,-3.0981,-3.0981,-3.0981,-3.098,0,-3.0902,-3.0921,-3.0914,-3.0926,-3.0946,-3.0938,-3.0958,-3.0958,-3.0961,-3.0971,-3.0961,-3.0971,-3.0963,-3.0973,-3.0968,-3.0985,-3.0987,-3.0985,-3.0983,-3.0985,-3.0985,-3.0987,-3.0984,-3.0982,-3.0982,-3.0981,-3.0981,0,-3.0946,-3.0942,-3.0963,-3.0963,-3.0964,-3.0978,-3.0978,-3.0989,-3.0986,-3.1,-3.1003,-3.0999,-3.1009,-3.1004,-3.1015,-3.1012,-3.1032,-3.1029,-3.1031,-3.1029,-3.1044,-3.1042,-3.1096,-3.1102,-3.1056,-3.1056,-3.1057,0,-3.0974,-3.0988,-3.0989,-3.0995,-3.0998,-3.1009,-3.1014,-3.1007,-3.1013,-3.1018,-3.1027,-3.1036,-3.1043,-3.106,-3.1057,-3.1065,-3.106,-3.1078,-3.1061,-3.1062,-3.1058,-3.1056,-3.1057,-3.1082,-3.1082,-3.1083,-3.1083,0,-3.1022,-3.1019,-3.1028,-3.1035,-3.1042,-3.1048,-3.1053,-3.1058,-3.1051,-3.1058,-3.1068,-3.1073,-3.1083,-3.1092,-3.1098,-3.1099,-3.1089,-3.1089,-3.1092,-3.1093,-3.1093,-3.1091,-3.1038,-3.1087,-3.1087,-3.1086,-3.1086,-3.1086,-3.1058,-3.1068,-3.107,-3.1079,-3.1082,-3.1086,-3.1095,-3.1093,-3.1101,-3.1109,-3.1104,-3.1115,-3.1117,-3.1124,-3.1125,-3.1133,-3.1126,-3.1131,-3.1132,-3.1134,-3.1134,-3.1093,-3.1135,-3.1134,-3.1134,-3.1134,-3.1134,0,-3.1104,-3.1104,-3.1113,-3.1119,-3.1125,-3.1116,-3.112,-3.1126,-3.1136,-3.1138,-3.1145,-3.1155,-3.1162,-3.116,-3.1166,-3.1173,-3.1168,-3.1175,-3.1173,-3.1173,-3.1142,-3.1137,-3.1178,-3.1178,-3.1178,-3.1178,-3.1178,-3.1178,-3.1129,-3.1145,-3.1141,-3.1158,-3.1158,-3.1169,-3.1171,-3.1174,-3.1176,-3.1188,-3.1194,-3.1192,-3.1192,-3.1198,-3.1204,-3.1203,-3.1205,-3.1212,-3.121,-3.118,-3.1176,-3.1172,-3.1167,-3.1213,-3.1213,-3.124,-3.124,-3.124]}]]